^^
Datos históricos de la estación: Murcia-Puente Tocinos
Diario Informe para Mayo 7, 2019 Unidades:  Métrico    Inglés   Ambas
Diario Semanal Mensual Anual Configurable
  Máximo: Mínimo: Media:
Temperatura: 27.6 °C 16.3 °C 20.9 °C
Punto de rocio: 15.8 °C 12.1 °C 14.2 °C
Humedad: 88% 39% 68%
Velocidad viento: 20.9km/h 0.0km/h 6.7km/h
Racha viento: 37.0km/h - -
Viento- - SE
Presión: 1017.3 hPa 1012.3 hPa -
Precipitación: 0.0 mm    
Historical Graphs
 
 
Tabla de datos para Mayo 7, 2019
Hora Temperatura Punto de rocio Presión Viento Velocidad viento Racha viento Humedad Intensidad lluvia(por hora) Nubes
00:04 16.9 °C 14.3 °C 1017.1 hPa NNE 6.9 km/h 11.1 km/h 85% 0.0 mm CLR
00:09 16.8 °C 14.3 °C 1017.1 hPa NNE 7.6 km/h 11.1 km/h 85% 0.0 mm CLR
00:14 16.8 °C 14.3 °C 1017.1 hPa North 7.6 km/h 11.1 km/h 85% 0.0 mm CLR
00:19 16.7 °C 14.3 °C 1017.3 hPa NE 6.9 km/h 9.3 km/h 86% 0.0 mm CLR
00:24 16.7 °C 14.3 °C 1017.3 hPa NE 6.9 km/h 9.3 km/h 86% 0.0 mm CLR
00:29 16.7 °C 14.3 °C 1017.3 hPa NE 6.4 km/h 9.3 km/h 86% 0.0 mm CLR
00:34 16.6 °C 14.2 °C 1017.2 hPa NE 6.4 km/h 10.0 km/h 86% 0.0 mm CLR
00:39 16.6 °C 14.2 °C 1017.2 hPa NE 7.6 km/h 9.3 km/h 86% 0.0 mm CLR
00:45 16.5 °C 14.3 °C 1017.2 hPa NE 7.6 km/h 8.7 km/h 87% 0.0 mm CLR
00:49 16.5 °C 14.3 °C 1017.3 hPa NE 6.9 km/h 11.1 km/h 87% 0.0 mm CLR
00:55 16.4 °C 14.3 °C 1017.3 hPa NE 8.0 km/h 11.3 km/h 87% 0.0 mm CLR
01:00 16.5 °C 14.3 °C 1017.3 hPa NE 8.0 km/h 11.3 km/h 87% 0.0 mm CLR
01:05 16.5 °C 14.3 °C 1017.3 hPa NE 6.4 km/h 7.4 km/h 87% 0.0 mm CLR
01:09 16.5 °C 14.3 °C 1017.3 hPa NE 6.4 km/h 9.3 km/h 87% 0.0 mm CLR
01:14 16.5 °C 14.3 °C 1017.3 hPa ENE 6.4 km/h 9.3 km/h 87% 0.0 mm CLR
01:19 16.4 °C 14.2 °C 1017.1 hPa ENE 6.4 km/h 9.3 km/h 87% 0.0 mm CLR
01:25 16.4 °C 14.2 °C 1017.1 hPa NE 6.4 km/h 7.4 km/h 87% 0.0 mm CLR
01:29 16.4 °C 14.2 °C 1017.1 hPa NE 5.8 km/h 9.5 km/h 87% 0.0 mm CLR
01:35 16.4 °C 14.2 °C 1017.2 hPa NE 4.8 km/h 9.7 km/h 87% 0.0 mm CLR
01:39 16.4 °C 14.2 °C 1017.2 hPa NE 5.8 km/h 9.3 km/h 87% 0.0 mm CLR
01:45 16.3 °C 14.2 °C 1017.2 hPa NE 4.8 km/h 9.7 km/h 87% 0.0 mm CLR
01:49 16.4 °C 14.2 °C 1017.1 hPa NE 6.4 km/h 7.4 km/h 87% 0.0 mm CLR
01:55 16.4 °C 14.2 °C 1017.1 hPa NE 8.0 km/h 9.7 km/h 87% 0.0 mm CLR
01:59 16.3 °C 14.1 °C 1017.1 hPa NNE 5.0 km/h 7.4 km/h 87% 0.0 mm CLR
02:05 16.4 °C 14.2 °C 1017.1 hPa NNE 5.0 km/h 3.7 km/h 87% 0.0 mm CLR
02:09 16.4 °C 14.2 °C 1017.1 hPa NNE 2.3 km/h 5.8 km/h 87% 0.0 mm CLR
02:14 16.4 °C 14.2 °C 1017.1 hPa NE 2.3 km/h 7.4 km/h 87% 0.0 mm CLR
02:19 16.4 °C 14.4 °C 1017.0 hPa NE 5.0 km/h 7.4 km/h 88% 0.0 mm CLR
02:24 16.4 °C 14.4 °C 1017.0 hPa NE 5.0 km/h 5.6 km/h 88% 0.0 mm CLR
02:29 16.4 °C 14.4 °C 1017.0 hPa NNE 5.0 km/h 8.4 km/h 88% 0.0 mm CLR
02:34 16.5 °C 14.5 °C 1017.0 hPa NE 5.0 km/h 7.4 km/h 88% 0.0 mm CLR
02:39 16.6 °C 14.6 °C 1017.0 hPa NNE 5.0 km/h 3.7 km/h 88% 0.0 mm CLR
02:45 16.7 °C 14.5 °C 1017.0 hPa North 5.0 km/h 7.4 km/h 87% 0.0 mm CLR
02:49 16.7 °C 14.5 °C 1017.0 hPa North 2.9 km/h 5.6 km/h 87% 0.0 mm CLR
02:55 16.7 °C 14.5 °C 1017.0 hPa North 2.9 km/h   87% 0.0 mm CLR
03:00 16.7 °C 14.5 °C 1017.0 hPa Calm     87% 0.0 mm CLR
03:05 16.8 °C 14.6 °C 1016.9 hPa Calm     87% 0.0 mm CLR
03:10 16.8 °C 14.6 °C 1016.9 hPa Calm     87% 0.0 mm CLR
03:14 16.8 °C 14.4 °C 1016.9 hPa Calm     86% 0.0 mm CLR
03:19 16.9 °C 14.6 °C 1016.7 hPa Calm   3.7 km/h 86% 0.0 mm CLR
03:25 16.9 °C 14.6 °C 1016.7 hPa Calm   4.8 km/h 86% 0.0 mm CLR
03:29 16.9 °C 14.6 °C 1016.7 hPa NE 2.9 km/h 7.4 km/h 86% 0.0 mm CLR
03:35 16.9 °C 14.6 °C 1016.6 hPa NE 2.9 km/h   86% 0.0 mm CLR
03:39 17.0 °C 14.7 °C 1016.6 hPa WSW 2.9 km/h 3.9 km/h 86% 0.0 mm CLR
03:45 17.1 °C 14.6 °C 1016.6 hPa NNW 2.9 km/h 5.6 km/h 85% 0.0 mm CLR
03:49 17.1 °C 14.6 °C 1016.5 hPa NW 3.2 km/h 5.6 km/h 85% 0.0 mm CLR
03:55 17.2 °C 14.7 °C 1016.5 hPa NW 3.2 km/h   85% 0.0 mm CLR
04:00 17.2 °C 14.7 °C 1016.5 hPa Calm   8.0 km/h 85% 0.0 mm CLR
04:05 17.2 °C 14.7 °C 1016.7 hPa Calm   7.4 km/h 85% 0.0 mm CLR
04:09 17.2 °C 14.7 °C 1016.7 hPa NNW 3.2 km/h 3.7 km/h 85% 0.0 mm CLR
04:15 17.2 °C 14.7 °C 1016.7 hPa NW 3.2 km/h 1.6 km/h 85% 0.0 mm CLR
04:19 17.3 °C 14.6 °C 1016.6 hPa Calm     84% 0.0 mm CLR
04:25 17.3 °C 14.7 °C 1016.6 hPa Calm     85% 0.0 mm CLR
04:29 17.2 °C 14.7 °C 1016.6 hPa Calm     85% 0.0 mm CLR
04:34 17.2 °C 14.7 °C 1016.6 hPa Calm     85% 0.0 mm CLR
04:39 17.2 °C 14.7 °C 1016.6 hPa Calm     85% 0.0 mm CLR
04:45 17.2 °C 14.7 °C 1016.6 hPa Calm     85% 0.0 mm CLR
04:49 17.2 °C 14.7 °C 1016.6 hPa Calm     85% 0.0 mm CLR
04:55 17.1 °C 14.6 °C 1016.6 hPa Calm     85% 0.0 mm CLR
05:00 17.1 °C 14.6 °C 1016.6 hPa Calm     85% 0.0 mm CLR
05:05 17.1 °C 14.6 °C 1016.6 hPa Calm     85% 0.0 mm CLR
05:09 17.2 °C 14.7 °C 1016.6 hPa NNW 2.3 km/h   85% 0.0 mm CLR
05:15 17.2 °C 14.7 °C 1016.6 hPa NNW 1.6 km/h   85% 0.0 mm CLR
05:19 17.2 °C 14.7 °C 1016.6 hPa Calm     85% 0.0 mm CLR
05:24 17.2 °C 14.7 °C 1016.6 hPa Calm     85% 0.0 mm CLR
05:29 17.2 °C 14.7 °C 1016.6 hPa Calm   3.9 km/h 85% 0.0 mm CLR
05:35 17.2 °C 14.4 °C 1016.6 hPa Calm   3.7 km/h 84% 0.0 mm CLR
05:39 17.2 °C 14.7 °C 1016.6 hPa Calm   5.6 km/h 85% 0.0 mm CLR
05:45 17.2 °C 14.7 °C 1016.6 hPa Calm   5.6 km/h 85% 0.0 mm CLR
05:49 17.2 °C 14.7 °C 1016.6 hPa NE 3.9 km/h 5.6 km/h 85% 0.0 mm CLR
05:55 17.1 °C 14.6 °C 1016.6 hPa NE 3.2 km/h 8.0 km/h 85% 0.0 mm CLR
05:59 17.1 °C 14.6 °C 1016.6 hPa NE 3.2 km/h 3.7 km/h 85% 0.0 mm CLR
06:05 17.1 °C 14.6 °C 1016.2 hPa ENE 3.2 km/h 7.6 km/h 85% 0.0 mm CLR
06:09 17.1 °C 14.6 °C 1016.2 hPa NE 3.9 km/h 5.6 km/h 85% 0.0 mm CLR
06:15 17.1 °C 14.6 °C 1016.2 hPa ENE 3.2 km/h 9.7 km/h 85% 0.0 mm CLR
06:19 17.0 °C 14.4 °C 1015.9 hPa ENE 4.7 km/h 7.4 km/h 85% 0.0 mm CLR
06:25 17.0 °C 14.7 °C 1015.9 hPa ENE 4.7 km/h   86% 0.0 mm CLR
06:29 17.0 °C 14.7 °C 1015.9 hPa Calm     86% 0.0 mm CLR
06:35 17.1 °C 14.6 °C 1016.1 hPa Calm     85% 0.0 mm CLR
06:39 17.1 °C 14.6 °C 1016.1 hPa Calm   3.7 km/h 85% 0.0 mm CLR
06:45 17.1 °C 14.7 °C 1016.1 hPa Calm     86% 0.0 mm CLR
06:49 17.1 °C 14.7 °C 1016.2 hPa Calm   5.8 km/h 86% 0.0 mm CLR
06:55 17.1 °C 14.6 °C 1016.2 hPa Calm   4.7 km/h 85% 0.0 mm CLR
07:00 17.1 °C 14.6 °C 1016.2 hPa NW 3.2 km/h 6.4 km/h 85% 0.0 mm CLR
07:05 17.1 °C 14.6 °C 1016.2 hPa NW 2.9 km/h   85% 0.0 mm CLR
07:09 17.1 °C 14.6 °C 1016.2 hPa Calm     85% 0.0 mm CLR
07:15 17.1 °C 14.6 °C 1016.2 hPa Calm     85% 0.0 mm CLR
07:19 17.1 °C 14.6 °C 1016.4 hPa Calm   4.7 km/h 85% 0.0 mm CLR
07:25 17.2 °C 14.7 °C 1016.4 hPa Calm     85% 0.0 mm CLR
07:29 17.2 °C 14.3 °C 1016.4 hPa SW 2.3 km/h 7.4 km/h 83% 0.0 mm CLR
07:35 17.2 °C 14.3 °C 1016.5 hPa South 2.3 km/h 3.7 km/h 83% 0.0 mm CLR
07:39 17.2 °C 14.1 °C 1016.5 hPa SE 4.7 km/h 7.4 km/h 82% 0.0 mm CLR
07:45 17.3 °C 14.2 °C 1016.5 hPa SSW 3.2 km/h 9.7 km/h 82% 0.0 mm CLR
07:49 17.3 °C 14.0 °C 1016.6 hPa SSW 4.7 km/h 7.4 km/h 81% 0.0 mm CLR
07:55 17.3 °C 14.0 °C 1016.6 hPa SW 3.2 km/h 9.7 km/h 81% 0.0 mm CLR
08:00 17.3 °C 14.0 °C 1016.6 hPa SW 4.8 km/h 8.0 km/h 81% 0.0 mm CLR
08:05 17.4 °C 14.1 °C 1016.6 hPa SW 4.8 km/h 9.7 km/h 81% 0.0 mm CLR
08:09 17.4 °C 14.1 °C 1016.6 hPa SW 3.9 km/h 9.3 km/h 81% 0.0 mm CLR
08:15 17.4 °C 13.9 °C 1016.6 hPa SW 3.2 km/h 11.3 km/h 80% 0.0 mm CLR
08:19 17.4 °C 13.9 °C 1016.5 hPa WSW 6.4 km/h 10.0 km/h 80% 0.0 mm CLR
08:25 17.3 °C 14.0 °C 1016.5 hPa West 6.4 km/h 9.3 km/h 81% 0.0 mm CLR
08:29 17.3 °C 13.8 °C 1016.5 hPa West 6.9 km/h 7.6 km/h 80% 0.0 mm CLR
08:35 17.4 °C 14.1 °C 1016.6 hPa WSW 6.9 km/h 7.4 km/h 81% 0.0 mm CLR
08:39 17.4 °C 13.9 °C 1016.6 hPa West 5.8 km/h 11.1 km/h 80% 0.0 mm CLR
08:45 17.5 °C 13.8 °C 1016.6 hPa West 4.8 km/h 14.5 km/h 79% 0.0 mm CLR
08:49 17.5 °C 13.8 °C 1016.8 hPa WSW 7.6 km/h 11.1 km/h 79% 0.0 mm CLR
08:54 17.6 °C 13.9 °C 1016.8 hPa SW 7.6 km/h 14.8 km/h 79% 0.0 mm CLR
09:00 17.6 °C 13.9 °C 1016.8 hPa WSW 8.0 km/h 14.5 km/h 79% 0.0 mm CLR
09:05 17.6 °C 13.9 °C 1016.8 hPa WSW 8.0 km/h 14.5 km/h 79% 0.0 mm CLR
09:09 17.5 °C 13.8 °C 1016.8 hPa WSW 6.9 km/h 11.1 km/h 79% 0.0 mm CLR
09:15 17.6 °C 13.9 °C 1016.8 hPa WSW 6.9 km/h 13.0 km/h 79% 0.0 mm CLR
09:19 17.6 °C 13.9 °C 1016.7 hPa SW 8.4 km/h 13.0 km/h 79% 0.0 mm CLR
09:25 17.7 °C 14.0 °C 1016.7 hPa WSW 8.0 km/h 16.1 km/h 79% 0.0 mm CLR
09:30 17.8 °C 13.9 °C 1016.7 hPa WSW 8.0 km/h 12.9 km/h 78% 0.0 mm CLR
09:35 17.9 °C 14.0 °C 1016.7 hPa SW 8.4 km/h 11.1 km/h 78% 0.0 mm CLR
09:39 18.1 °C 14.0 °C 1016.7 hPa SW 6.4 km/h 11.1 km/h 77% 0.0 mm CLR
09:45 18.1 °C 14.0 °C 1016.7 hPa SW 8.0 km/h 8.0 km/h 77% 0.0 mm CLR
09:49 18.3 °C 14.0 °C 1016.5 hPa WNW 5.0 km/h 9.3 km/h 76% 0.0 mm CLR
09:55 18.4 °C 14.1 °C 1016.5 hPa SW 4.8 km/h 12.9 km/h 76% 0.0 mm CLR
10:00 18.4 °C 14.1 °C 1016.5 hPa SW 8.0 km/h 12.9 km/h 76% 0.0 mm CLR
10:05 18.6 °C 14.3 °C 1016.5 hPa SW 8.0 km/h 11.3 km/h 76% 0.0 mm CLR
10:10 18.8 °C 14.2 °C 1016.5 hPa SW 4.8 km/h 11.3 km/h 75% 0.0 mm CLR
10:15 18.9 °C 14.2 °C 1016.5 hPa South 5.0 km/h 13.0 km/h 74% 0.0 mm CLR
10:19 19.0 °C 14.3 °C 1016.5 hPa WNW 6.9 km/h 9.3 km/h 74% 0.0 mm CLR
10:25 19.2 °C 14.2 °C 1016.5 hPa South 6.9 km/h 9.3 km/h 73% 0.0 mm CLR
10:30 19.3 °C 14.3 °C 1016.5 hPa SW 4.8 km/h 9.7 km/h 73% 0.0 mm CLR
10:35 19.5 °C 14.3 °C 1016.5 hPa SW 5.0 km/h 9.3 km/h 72% 0.0 mm CLR
10:39 19.8 °C 14.4 °C 1016.5 hPa SW 4.7 km/h 7.6 km/h 71% 0.0 mm CLR
10:45 20.0 °C 13.9 °C 1016.5 hPa NNW 4.7 km/h 11.1 km/h 68% 0.0 mm CLR
10:49 20.2 °C 14.3 °C 1016.4 hPa SSW 3.9 km/h 3.7 km/h 69% 0.0 mm CLR
10:54 20.2 °C 14.1 °C 1016.4 hPa South 3.9 km/h 11.1 km/h 68% 0.0 mm CLR
11:00 20.4 °C 14.3 °C 1016.4 hPa South 8.0 km/h 11.3 km/h 68% 0.0 mm CLR
11:05 20.5 °C 14.2 °C 1016.3 hPa South 8.0 km/h 11.3 km/h 67% 0.0 mm CLR
11:10 20.7 °C 14.3 °C 1016.3 hPa SSW 8.0 km/h 9.7 km/h 67% 0.0 mm CLR
11:15 20.9 °C 14.3 °C 1016.3 hPa SSW 8.0 km/h 12.9 km/h 66% 0.0 mm CLR
11:19 20.9 °C 14.1 °C 1016.3 hPa SW 6.4 km/h 9.3 km/h 65% 0.0 mm CLR
11:25 21.0 °C 14.2 °C 1016.3 hPa South 6.4 km/h 9.3 km/h 65% 0.0 mm CLR
11:30 21.2 °C 14.1 °C 1016.3 hPa South 5.0 km/h 7.6 km/h 64% 0.0 mm CLR
11:35 21.6 °C 14.5 °C 1016.2 hPa NE 5.0 km/h 7.4 km/h 64% 0.0 mm CLR
11:39 21.9 °C 14.1 °C 1016.2 hPa WSW 3.9 km/h 9.3 km/h 61% 0.0 mm CLR
11:45 22.1 °C 13.7 °C 1016.2 hPa North 3.2 km/h 12.9 km/h 59% 0.0 mm CLR
11:49 22.1 °C 13.7 °C 1016.1 hPa SSW 6.4 km/h 7.4 km/h 59% 0.0 mm CLR
11:55 22.2 °C 13.6 °C 1016.1 hPa East 6.4 km/h 7.4 km/h 58% 0.0 mm CLR
12:00 22.5 °C 13.8 °C 1016.1 hPa ESE 3.2 km/h 8.0 km/h 58% 0.0 mm CLR
12:05 22.8 °C 13.6 °C 1016.0 hPa East 3.2 km/h 9.7 km/h 56% 0.0 mm CLR
12:09 23.1 °C 13.6 °C 1016.0 hPa SW 4.7 km/h 7.4 km/h 55% 0.0 mm CLR
12:15 23.3 °C 13.7 °C 1016.0 hPa SW 3.2 km/h 9.7 km/h 55% 0.0 mm CLR
12:19 23.6 °C 13.4 °C 1016.0 hPa ESE 4.7 km/h 7.4 km/h 53% 0.0 mm CLR
12:25 23.7 °C 13.6 °C 1016.0 hPa ESE 3.2 km/h 8.0 km/h 53% 0.0 mm CLR
12:29 23.8 °C 13.3 °C 1016.0 hPa SSW 4.7 km/h 7.4 km/h 52% 0.0 mm CLR
12:34 23.9 °C 13.2 °C 1015.8 hPa NE 4.7 km/h 9.3 km/h 51% 0.0 mm CLR
12:39 23.9 °C 13.2 °C 1015.8 hPa East 5.0 km/h 11.1 km/h 51% 0.0 mm CLR
12:45 24.1 °C 13.3 °C 1015.8 hPa NE 4.8 km/h 9.7 km/h 51% 0.0 mm CLR
12:50 24.2 °C 13.4 °C 1015.6 hPa NE 8.0 km/h 11.3 km/h 51% 0.0 mm CLR
12:54 24.5 °C 13.1 °C 1015.6 hPa SSW 6.4 km/h 7.4 km/h 49% 0.0 mm CLR
13:00 24.7 °C 13.3 °C 1015.6 hPa NNW 3.2 km/h 12.9 km/h 49% 0.0 mm CLR
13:05 24.8 °C 13.3 °C 1015.4 hPa West 3.2 km/h 9.7 km/h 49% 0.0 mm CLR
13:10 24.9 °C 13.4 °C 1015.4 hPa NNE 3.2 km/h 9.7 km/h 49% 0.0 mm CLR
13:15 25.0 °C 12.9 °C 1015.4 hPa NE 3.2 km/h 9.7 km/h 47% 0.0 mm CLR
13:20 25.2 °C 12.4 °C 1015.3 hPa NNW 5.0 km/h 7.4 km/h 45% 0.0 mm CLR
13:25 25.4 °C 12.6 °C 1015.3 hPa NE 5.0 km/h 7.6 km/h 45% 0.0 mm CLR
13:29 25.6 °C 12.8 °C 1015.3 hPa NE 4.7 km/h 14.8 km/h 45% 0.0 mm CLR
13:35 25.6 °C 12.4 °C 1015.1 hPa ENE 4.7 km/h 9.3 km/h 44% 0.0 mm CLR
13:39 25.8 °C 12.6 °C 1015.1 hPa SE 4.7 km/h 7.4 km/h 44% 0.0 mm CLR
13:45 25.9 °C 12.4 °C 1015.1 hPa SE 3.2 km/h 11.3 km/h 43% 0.0 mm CLR
13:49 26.2 °C 12.6 °C 1014.9 hPa East 4.7 km/h 11.1 km/h 43% 0.0 mm CLR
13:55 26.3 °C 12.3 °C 1014.9 hPa East 3.2 km/h 19.3 km/h 42% 0.0 mm CLR
14:00 26.1 °C 12.6 °C 1014.9 hPa NE 9.7 km/h 16.1 km/h 43% 0.0 mm CLR
14:05 26.1 °C 12.6 °C 1014.8 hPa South 8.7 km/h 7.4 km/h 43% 0.0 mm CLR
14:09 26.2 °C 12.3 °C 1014.8 hPa SW 6.4 km/h 9.5 km/h 42% 0.0 mm CLR
14:15 26.3 °C 12.4 °C 1014.8 hPa NE 6.4 km/h 12.2 km/h 42% 0.0 mm CLR
14:19 26.3 °C 12.7 °C 1014.6 hPa ESE 6.4 km/h 9.3 km/h 43% 0.0 mm CLR
14:25 26.5 °C 12.6 °C 1014.6 hPa ENE 6.4 km/h 13.0 km/h 42% 0.0 mm CLR
14:29 26.4 °C 12.4 °C 1014.6 hPa NNE 6.4 km/h 11.1 km/h 42% 0.0 mm CLR
14:35 26.5 °C 12.9 °C 1014.3 hPa ENE 6.4 km/h 16.7 km/h 43% 0.0 mm CLR
14:39 26.6 °C 13.3 °C 1014.3 hPa East 8.7 km/h 14.8 km/h 44% 0.0 mm CLR
14:45 26.7 °C 13.8 °C 1014.3 hPa SSE 8.7 km/h 20.4 km/h 45% 0.0 mm CLR
14:49 26.6 °C 13.7 °C 1014.2 hPa SSE 13.0 km/h 24.1 km/h 45% 0.0 mm CLR
14:55 26.7 °C 14.1 °C 1014.2 hPa SE 12.9 km/h 24.1 km/h 46% 0.0 mm CLR
15:00 26.8 °C 14.6 °C 1014.2 hPa SE 14.5 km/h 25.7 km/h 47% 0.0 mm CLR
15:05 26.8 °C 14.9 °C 1014.0 hPa SE 14.8 km/h 27.8 km/h 48% 0.0 mm CLR
15:09 26.8 °C 15.2 °C 1014.0 hPa SE 14.8 km/h 27.8 km/h 49% 0.0 mm CLR
15:15 26.5 °C 15.2 °C 1014.0 hPa SSE 14.8 km/h 25.9 km/h 50% 0.0 mm CLR
15:20 26.4 °C 14.8 °C 1014.0 hPa SE 16.1 km/h 27.4 km/h 49% 0.0 mm CLR
15:25 26.3 °C 15.3 °C 1014.0 hPa SE 16.1 km/h 30.6 km/h 51% 0.0 mm CLR
15:30 26.3 °C 15.3 °C 1014.0 hPa SE 18.0 km/h 27.8 km/h 51% 0.0 mm CLR
15:35 26.1 °C 15.2 °C 1013.8 hPa ESE 18.0 km/h 27.8 km/h 51% 0.0 mm CLR
15:39 25.9 °C 15.0 °C 1013.8 hPa SE 19.8 km/h 30.6 km/h 51% 0.0 mm CLR
15:45 25.8 °C 15.2 °C 1013.8 hPa ESE 20.9 km/h 37.0 km/h 52% 0.0 mm CLR
15:49 26.1 °C 15.2 °C 1013.7 hPa East 20.9 km/h 22.2 km/h 51% 0.0 mm CLR
15:55 26.3 °C 14.7 °C 1013.7 hPa ESE 20.9 km/h 20.4 km/h 49% 0.0 mm CLR
16:00 26.3 °C 14.7 °C 1013.7 hPa SE 14.5 km/h 24.1 km/h 49% 0.0 mm CLR
16:05 26.4 °C 14.2 °C 1013.5 hPa SE 14.8 km/h 24.1 km/h 47% 0.0 mm CLR
16:09 26.7 °C 14.4 °C 1013.5 hPa ESE 14.8 km/h 18.5 km/h 47% 0.0 mm CLR
16:15 26.9 °C 14.3 °C 1013.5 hPa SE 14.8 km/h 18.5 km/h 46% 0.0 mm CLR
16:20 26.9 °C 14.3 °C 1013.3 hPa ESE 12.9 km/h 22.5 km/h 46% 0.0 mm CLR
16:25 26.9 °C 13.9 °C 1013.3 hPa ESE 12.9 km/h 20.9 km/h 45% 0.0 mm CLR
16:29 26.9 °C 13.6 °C 1013.3 hPa SE 13.7 km/h 14.8 km/h 44% 0.0 mm CLR
16:35 26.9 °C 13.3 °C 1013.2 hPa SE 13.7 km/h 24.1 km/h 43% 0.0 mm CLR
16:39 26.8 °C 13.2 °C 1013.2 hPa SSE 12.2 km/h 20.4 km/h 43% 0.0 mm CLR
16:45 27.0 °C 13.3 °C 1013.2 hPa SE 12.9 km/h 19.3 km/h 43% 0.0 mm CLR
16:50 26.9 °C 12.9 °C 1013.1 hPa SE 11.3 km/h 19.3 km/h 42% 0.0 mm CLR
16:55 26.9 °C 12.6 °C 1013.1 hPa SSE 11.3 km/h 22.5 km/h 41% 0.0 mm CLR
17:00 26.9 °C 12.9 °C 1013.1 hPa South 12.9 km/h 19.3 km/h 42% 0.0 mm CLR
17:05 27.2 °C 13.2 °C 1012.8 hPa SSE 12.9 km/h 20.9 km/h 42% 0.0 mm CLR
17:10 27.4 °C 13.0 °C 1012.8 hPa NE 11.9 km/h 14.8 km/h 41% 0.0 mm CLR
17:15 27.4 °C 12.6 °C 1012.8 hPa ESE 11.9 km/h 18.5 km/h 40% 0.0 mm CLR
17:20 27.6 °C 12.8 °C 1012.7 hPa SE 12.2 km/h 14.8 km/h 40% 0.0 mm CLR
17:25 27.6 °C 12.4 °C 1012.7 hPa SE 12.2 km/h 20.4 km/h 39% 0.0 mm CLR
17:30 27.3 °C 12.2 °C 1012.7 hPa SE 12.9 km/h 20.9 km/h 39% 0.0 mm CLR
17:35 27.1 °C 12.3 °C 1012.6 hPa East 13.0 km/h 25.9 km/h 40% 0.0 mm CLR
17:40 27.1 °C 12.3 °C 1012.6 hPa ESE 14.5 km/h 24.1 km/h 40% 0.0 mm CLR
17:45 26.9 °C 12.2 °C 1012.6 hPa ESE 14.0 km/h 20.4 km/h 40% 0.0 mm CLR
17:49 26.8 °C 12.4 °C 1012.5 hPa SE 14.0 km/h 23.3 km/h 41% 0.0 mm CLR
17:55 26.7 °C 12.3 °C 1012.5 hPa SE 14.5 km/h 24.1 km/h 41% 0.0 mm CLR
18:00 26.6 °C 12.6 °C 1012.5 hPa SE 12.9 km/h 24.1 km/h 42% 0.0 mm CLR
18:05 26.4 °C 12.1 °C 1012.4 hPa ESE 13.7 km/h 22.2 km/h 41% 0.0 mm CLR
18:10 26.2 °C 12.3 °C 1012.4 hPa ESE 14.5 km/h 24.1 km/h 42% 0.0 mm CLR
18:15 26.2 °C 12.6 °C 1012.4 hPa SE 15.6 km/h 16.7 km/h 43% 0.0 mm CLR
18:20 26.1 °C 12.9 °C 1012.5 hPa ESE 11.1 km/h 13.0 km/h 44% 0.0 mm CLR
18:25 26.0 °C 12.8 °C 1012.5 hPa SE 11.1 km/h 18.5 km/h 44% 0.0 mm CLR
18:29 25.9 °C 13.1 °C 1012.5 hPa ESE 13.0 km/h 18.5 km/h 45% 0.0 mm CLR
18:35 26.0 °C 13.2 °C 1012.5 hPa ESE 13.0 km/h 22.2 km/h 45% 0.0 mm CLR
18:40 25.8 °C 13.0 °C 1012.5 hPa ESE 12.9 km/h 24.1 km/h 45% 0.0 mm CLR
18:45 25.7 °C 13.2 °C 1012.5 hPa ENE 13.0 km/h 18.5 km/h 46% 0.0 mm CLR
18:50 25.8 °C 13.3 °C 1012.4 hPa SE 13.0 km/h 14.8 km/h 46% 0.0 mm CLR
18:55 25.7 °C 13.2 °C 1012.4 hPa ESE 13.0 km/h 20.4 km/h 46% 0.0 mm CLR
19:00 25.5 °C 13.4 °C 1012.4 hPa ESE 11.3 km/h 20.9 km/h 47% 0.0 mm CLR
19:05 25.4 °C 13.3 °C 1012.3 hPa ESE 11.3 km/h 22.5 km/h 47% 0.0 mm CLR
19:10 25.2 °C 13.4 °C 1012.3 hPa East 11.1 km/h 18.5 km/h 48% 0.0 mm CLR
19:15 25.2 °C 13.4 °C 1012.3 hPa SE 11.1 km/h 15.6 km/h 48% 0.0 mm CLR
19:20 25.1 °C 13.6 °C 1012.3 hPa ESE 12.2 km/h 16.7 km/h 49% 0.0 mm CLR
19:25 25.2 °C 13.7 °C 1012.3 hPa ESE 12.9 km/h 14.5 km/h 49% 0.0 mm CLR
19:29 25.2 °C 13.7 °C 1012.3 hPa ESE 9.5 km/h 11.1 km/h 49% 0.0 mm CLR
19:35 25.1 °C 13.6 °C 1012.3 hPa ESE 9.7 km/h 14.5 km/h 49% 0.0 mm CLR
19:40 24.9 °C 13.8 °C 1012.3 hPa ESE 8.7 km/h 13.0 km/h 50% 0.0 mm CLR
19:45 24.8 °C 13.7 °C 1012.3 hPa ESE 9.7 km/h 11.3 km/h 50% 0.0 mm CLR
19:50 24.8 °C 13.6 °C 1012.3 hPa ESE 8.0 km/h 9.7 km/h 50% 0.0 mm CLR
19:55 24.7 °C 13.9 °C 1012.3 hPa East 7.6 km/h 11.1 km/h 51% 0.0 mm CLR
20:00 24.6 °C 13.8 °C 1012.3 hPa ESE 8.0 km/h 11.3 km/h 51% 0.0 mm CLR
20:05 24.4 °C 13.6 °C 1012.3 hPa ESE 6.9 km/h 11.1 km/h 51% 0.0 mm CLR
20:09 24.3 °C 13.8 °C 1012.3 hPa East 6.9 km/h 9.3 km/h 52% 0.0 mm CLR
20:15 24.4 °C 13.9 °C 1012.3 hPa ESE 8.0 km/h 9.7 km/h 52% 0.0 mm CLR
20:20 24.3 °C 13.8 °C 1012.4 hPa East 4.8 km/h 11.3 km/h 52% 0.0 mm CLR
20:25 24.1 °C 14.2 °C 1012.4 hPa East 5.0 km/h 7.4 km/h 54% 0.0 mm CLR
20:30 23.9 °C 14.0 °C 1012.4 hPa NE 6.4 km/h 14.8 km/h 54% 0.0 mm CLR
20:35 23.7 °C 14.7 °C 1012.6 hPa NE 6.4 km/h 11.1 km/h 57% 0.0 mm CLR
20:40 23.3 °C 15.1 °C 1012.6 hPa NE 9.7 km/h 19.3 km/h 60% 0.0 mm CLR
20:45 22.9 °C 14.9 °C 1012.6 hPa NNE 9.7 km/h 19.3 km/h 61% 0.0 mm CLR
20:50 22.6 °C 14.9 °C 1012.7 hPa NE 11.3 km/h 19.3 km/h 62% 0.0 mm CLR
20:55 22.3 °C 14.9 °C 1012.7 hPa NE 11.1 km/h 16.7 km/h 63% 0.0 mm CLR
21:00 22.1 °C 14.9 °C 1012.7 hPa NE 11.3 km/h 20.9 km/h 64% 0.0 mm CLR
21:05 21.7 °C 15.1 °C 1012.8 hPa NNE 11.1 km/h 14.8 km/h 66% 0.0 mm CLR
21:10 21.6 °C 15.2 °C 1012.8 hPa NE 11.3 km/h 14.5 km/h 67% 0.0 mm CLR
21:15 21.3 °C 15.2 °C 1012.8 hPa NE 11.3 km/h 17.7 km/h 68% 0.0 mm CLR
21:19 21.1 °C 15.4 °C 1012.8 hPa North 10.0 km/h 13.0 km/h 70% 0.0 mm CLR
21:25 20.9 °C 15.4 °C 1012.8 hPa NNE 10.0 km/h 9.3 km/h 71% 0.0 mm CLR
21:30 20.8 °C 15.3 °C 1012.8 hPa NNE 8.0 km/h 11.3 km/h 71% 0.0 mm CLR
21:35 20.7 °C 15.4 °C 1012.8 hPa North 6.9 km/h 9.3 km/h 72% 0.0 mm CLR
21:40 20.5 °C 15.5 °C 1012.8 hPa NNE 8.0 km/h 14.5 km/h 73% 0.0 mm CLR
21:45 20.3 °C 15.5 °C 1012.8 hPa North 7.6 km/h 13.0 km/h 74% 0.0 mm CLR
21:49 20.1 °C 15.6 °C 1012.9 hPa NW 8.4 km/h 14.8 km/h 75% 0.0 mm CLR
21:55 19.9 °C 15.6 °C 1012.9 hPa NE 8.4 km/h 13.0 km/h 76% 0.0 mm CLR
22:00 19.7 °C 15.6 °C 1012.9 hPa NNE 9.7 km/h 14.5 km/h 77% 0.0 mm CLR
22:05 19.6 °C 15.7 °C 1013.1 hPa East 9.5 km/h 7.6 km/h 78% 0.0 mm CLR
22:10 19.6 °C 15.7 °C 1013.1 hPa NE 5.8 km/h 11.1 km/h 78% 0.0 mm CLR
22:15 19.4 °C 15.4 °C 1013.1 hPa NE 4.8 km/h 11.3 km/h 78% 0.0 mm CLR
22:20 19.4 °C 15.7 °C 1013.4 hPa NNE 4.8 km/h 9.7 km/h 79% 0.0 mm CLR
22:25 19.3 °C 15.6 °C 1013.4 hPa NE 5.0 km/h 7.4 km/h 79% 0.0 mm CLR
22:30 19.2 °C 15.4 °C 1013.4 hPa NNE 3.2 km/h 8.0 km/h 79% 0.0 mm CLR
22:35 19.1 °C 15.6 °C 1013.5 hPa NNE 3.2 km/h 11.3 km/h 80% 0.0 mm CLR
22:39 19.0 °C 15.7 °C 1013.5 hPa NNE 6.4 km/h 9.3 km/h 81% 0.0 mm CLR
22:45 18.9 °C 15.8 °C 1013.5 hPa North 6.4 km/h 5.6 km/h 82% 0.0 mm CLR
22:50 18.8 °C 15.7 °C 1013.7 hPa NE 5.8 km/h 9.3 km/h 82% 0.0 mm CLR
22:55 18.8 °C 15.7 °C 1013.7 hPa NNE 4.8 km/h 9.7 km/h 82% 0.0 mm CLR
23:00 18.7 °C 15.8 °C 1013.7 hPa NE 3.2 km/h 8.0 km/h 83% 0.0 mm CLR
23:05 18.6 °C 15.7 °C 1013.6 hPa NNE 4.7 km/h 9.3 km/h 83% 0.0 mm CLR
23:10 18.4 °C 15.7 °C 1013.6 hPa NW 5.8 km/h 5.8 km/h 84% 0.0 mm CLR
23:15 18.4 °C 15.7 °C 1013.6 hPa NNE 5.8 km/h 7.4 km/h 84% 0.0 mm CLR
23:20 18.3 °C 15.7 °C 1013.7 hPa NNE 4.7 km/h 7.4 km/h 85% 0.0 mm CLR
23:25 18.2 °C 15.6 °C 1013.7 hPa NNE 4.7 km/h 7.4 km/h 85% 0.0 mm CLR
23:30 18.2 °C 15.6 °C 1013.7 hPa North 3.2 km/h 9.7 km/h 85% 0.0 mm CLR
23:35 18.2 °C 15.6 °C 1013.7 hPa North 3.2 km/h 9.7 km/h 85% 0.0 mm CLR
23:40 18.2 °C 15.6 °C 1013.7 hPa NNE 4.7 km/h 7.4 km/h 85% 0.0 mm CLR
23:45 18.1 °C 15.6 °C 1013.7 hPa North 3.2 km/h 6.4 km/h 85% 0.0 mm CLR
23:50 18.1 °C 15.6 °C 1013.8 hPa North 3.2 km/h 6.4 km/h 85% 0.0 mm CLR
23:55 18.1 °C 15.6 °C 1013.8 hPa NNW 2.9 km/h 5.6 km/h 85% 0.0 mm CLR
Murcia-Puente Tocinos, España
Compliments of Weather Underground - 2.75 mb

La estación de MeteoMurcia.com, publica sus datos en los siguientes proyectos:

Weather Underground PWS IMURCIAP2 Meteoclimatic www.awekas.at

W3Counter
Web Analytics